CAPE
0 0 2 0 0 0 0 0 0 0 0 0 0 0 0 0 0 0 280 677 892 1179 1287 1380 1316 693 1538 1710 1800 1916 1647 870 1337 1796 1826 1815 1677 1075 1211 749 349 599 719 738
0 0 0 0 0 0 0 0 0 0 0 0 0 0 0 0 0 0 32 520 566 916 1311 1498 1445 1391 1314 1759 1896 2028 2179 2277 1943 1931 1898 1839 1606 1312 1219 901 629 569 773 572
0 0 0 0 0 0 0 0 0 0 0 0 0 0 0 0 9 30 5 343 441 823 1061 1341 1594 1553 1197 864 1141 2026 2335 2442 2485 2187 2228 2182 2033 1838 1166 967 828 751 988 1058
0 0 0 0 0 0 0 0 0 0 0 0 0 34 0 16 48 120 97 129 462 779 1145 1054 1303 1627 1404 675 695 1556 2091 2478 2546 2385 2330 1840 1206 1318 1154 884 933 493 1013 956
0 0 0 0 0 0 0 0 0 0 0 0 0 0 13 108 135 294 471 612 553 172 880 1132 1006 1438 1746 1041 763 609 1840 2384 2158 2161 2353 2001 1538 1393 1346 1243 1213 982 1242 1240
0 0 0 0 0 0 0 0 0 0 0 2 0 0 41 166 477 504 704 832 785 409 304 906 1054 1167 1646 1736 1777 1023 1529 2315 2249 2363 2564 2524 2299 2094 1555 1268 1430 1294 1245 1358
0 0 0 0 0 0 0 0 6 0 6 21 0 0 20 146 573 843 991 984 870 719 730 819 1116 1269 1623 1829 1858 1628 2010 2027 2386 2502 2519 2607 2659 2510 2209 2014 1328 1269 1139 1153
0 0 0 0 0 0 0 0 11 2 7 10 0 1 100 192 656 1096 1152 1152 1052 988 1098 1195 1385 1556 1789 1897 2045 2009 1995 2431 2357 2564 2606 2677 2798 2601 2349 2208 1778 1469 1225 1106
0 0 0 0 0 0 0 0 0 0 0 0 5 0 1 190 345 1010 1260 1319 1387 1309 1364 1639 1832 1817 1779 1921 2101 2122 2217 2344 2486 2284 2491 2604 2764 2747 2277 2279 2086 1483 1581 1617
0 0 0 0 0 0 0 0 4 11 21 11 11 0 0 28 408 1016 1141 1443 1570 1318 1481 1717 1511 1395 1350 1455 1654 1977 2138 2030 2262 1627 1309 1468 1835 2332 2561 2509 1633 1640 1310 1694
0 0 0 0 0 3 0 1 0 1 1 4 0 2 2 61 536 861 620 1045 1567 1660 1070 882 689 705 1027 1417 1596 1650 1842 1945 1771 1470 1665 1927 2128 2188 2418 1843 592 846 1996 2157
0 0 0 2 0 0 0 0 0 10 15 3 0 0 18 227 662 516 471 939 1651 1729 1401 779 719 910 989 911 901 860 1060 1301 1534 2108 2411 2456 2608 2415 2058 31 5 0 1325 2095
0 0 10 3 0 0 0 0 0 0 0 0 0 0 0 0 7 337 555 736 1405 1472 1605 1354 920 835 1151 1335 1404 1295 1379 1732 2149 1897 2108 2628 2594 2631 2261 1294 363 200 1373 2101
0 2 9 18 6 0 0 0 0 0 0 0 0 0 0 0 0 0 81 223 1486 1332 1231 1505 1164 808 865 918 786 662 854 1406 1587 1736 2058 2390 2423 1926 2324 2181 1276 752 1639 2355
0 7 1 0 0 0 0 0 0 0 0 0 0 0 0 0 0 76 244 726 1111 994 681 665 404 200 45 171 320 236 167 808 1525 1681 1847 1655 1744 1070 1418 1582 2198 1945 1627 2250
0 0 0 0 0 0 0 0 0 0 0 0 0 0 0 9 276 338 441 665 718 414 139 74 23 0 0 0 0 0 1 11 561 983 1065 1233 1405 1922 2757 2765 1913 448 1690 2398
0 0 0 0 0 0 0 0 0 0 0 0 0 0 15 46 166 276 343 273 276 193 150 185 154 97 63 30 0 0 0 0 24 105 275 551 906 906 1116 1681 2426 2331 2229 2339
0 0 0 0 0 0 0 0 0 0 0 0 0 0 18 62 78 91 52 196 348 424 232 47 31 26 29 26 3 1 1 4 20 19 16 14 135 385 665 727 1053 1637 2141 2541
0 0 0 0 0 0 0 0 0 0 0 0 0 0 0 0 0 43 104 125 78 36 0 0 0 1 3 10 0 0 0 0 1 40 33 35 11 59 264 433 410 733 1269 1571
0 0 0 0 0 0 0 0 0 0 0 0 0 0 0 0 0 67 0 0 0 0 0 0 0 0 0 0 0 0 0 0 0 0 0 5 21 33 48 168 551 686 916 875
0 0 0 0 0 0 0 0 0 0 0 0 0 0 0 0 0 0 0 0 0 0 0 0 0 0 0 0 0 0 0 0 0 0 11 17 0 13 37 177 564 830 761 710
0 0 0 0 0 0 0 0 0 0 0 0 0 0 0 0 0 0 0 0 0 0 0 0 0 0 0 3 12 15 2 2 4 2 0 0 22 6 0 4 354 714 874 775
0 0 0 0 0 0 0 0 0 0 0 0 0 0 0 0 0 0 0 0 0 0 0 0 6 8 19 23 4 1 1 4 0 0 0 2 0 0 26 22 57 292 573 336
0 0 0 0 0 0 0 0 0 0 0 0 0 0 0 0 0 0 1 0 0 0 1 9 16 16 15 10 19 13 2 1 7 12 11 4 1 0 36 8 0 0 27 2
0 0 0 0 0 0 0 0 0 2 0 0 0 0 2 2 1 2 4 7 7 7 9 17 26 35 24 20 23 9 7 23 11 18 27 25 21 8 1 1 0 0 0 5
0 0 0 0 0 0 0 0 0 0 0 2 5 1 1 2 8 17 21 24 28 33 42 38 34 17 18 36 36 24 46 42 31 27 20 32 40 27 12 3 0 0 0 0
CIN
-0 -0 -4 -0 -0 -0 -0 -0 -0 -0 -0 -0 -0 -0 -0 -0 -0 -0 -62 -57 -30 -22 -25 -55 -92 -163 -66 -55 -43 -48 -54 -91 -7 -1 -3 -1 -5 -14 -9 -39 -50 -23 -11 -6
-0 -0 -0 -0 -0 -0 -0 -0 -0 -0 -0 -0 -0 -0 -0 -0 -0 -0 -66 -71 -53 -32 -43 -57 -92 -94 -86 -113 -103 -59 -24 -6 -22 -6 -5 -6 -1 -7 -23 -33 -41 -37 -17 -10
-0 -0 -0 -0 -0 -0 -0 -0 -0 -0 -0 -0 -0 -0 -0 -0 -57 -84 -65 -78 -43 -44 -68 -95 -101 -102 -96 -151 -185 -77 -54 -29 -25 -14 -0 -4 -2 -5 -19 -26 -15 -28 -8 -2
-0 -0 -0 -0 -0 -0 -0 -0 -0 -0 -0 -0 -0 -4 -0 -48 -47 -53 -48 -63 -30 -50 -77 -89 -101 -99 -100 -118 -203 -133 -105 -49 -45 -40 -2 -11 -20 -11 -13 -17 -17 -33 -2 -10
-0 -0 -0 -0 -0 -0 -0 -0 -0 -0 -0 -0 -0 -0 -18 -20 -7 -26 -45 -46 -39 -46 -48 -89 -116 -94 -94 -97 -164 -220 -117 -66 -82 -81 -49 -21 -24 -23 -11 -0 -13 -19 -5 -1
-0 -0 -0 -0 -0 -0 -0 -0 -0 -0 -0 -1 -0 -0 -8 -11 -34 -39 -42 -46 -79 -63 -59 -54 -90 -107 -92 -100 -78 -139 -165 -125 -125 -72 -58 -48 -25 -14 -16 -15 -3 -2 -1 -1
-0 -0 -0 -0 -0 -0 -0 -0 -3 -1 -1 -3 -0 -0 -10 -18 -47 -58 -57 -58 -82 -97 -72 -75 -92 -104 -128 -119 -119 -99 -113 -114 -89 -58 -75 -66 -40 -28 -18 -10 -5 -1 -1 -2
-0 -0 -0 -0 -0 -0 -0 -0 -3 -2 -2 -4 -0 -1 -11 -21 -32 -40 -52 -75 -84 -84 -107 -112 -144 -129 -135 -122 -121 -106 -75 -91 -71 -63 -62 -39 -22 -20 -21 -15 -3 -2 -1 -2
-0 -0 -0 -0 -0 -0 -0 -0 -0 -0 -0 -0 -1 -0 -1 -18 -14 -25 -37 -45 -73 -94 -108 -148 -169 -155 -158 -130 -105 -99 -96 -102 -80 -70 -42 -30 -23 -23 -17 -19 -17 -29 -1 -1
-0 -0 -0 -0 -0 -0 -0 -0 -2 -6 -3 -4 -5 -0 -0 -38 -10 -23 -43 -57 -71 -106 -160 -201 -230 -206 -188 -145 -115 -106 -84 -93 -63 -114 -119 -80 -55 -29 -13 -36 -9 -21 -22 -1
-0 -0 -1 -0 -0 -2 -0 -6 -0 -4 -5 -3 -0 -1 -24 -40 -18 -39 -33 -66 -77 -56 -187 -263 -303 -288 -230 -155 -114 -89 -75 -60 -48 -67 -43 -44 -21 -29 -12 -55 -133 -117 -40 -2
-0 -0 -0 -2 -0 -0 -0 -0 -0 -2 -3 -6 -0 -0 -175 -57 -30 -50 -50 -37 -50 -68 -109 -210 -227 -225 -211 -224 -220 -199 -163 -126 -75 -20 -4 -3 -6 -15 -35 -124 -213 -0 -118 -18
-0 -0 -4 -1 -0 -0 -0 -0 -0 -0 -0 -0 -0 -0 -0 -0 -124 -35 -37 -36 -41 -68 -67 -81 -121 -193 -163 -132 -136 -151 -141 -92 -88 -70 -7 -1 -1 -6 -18 -130 -209 -273 -68 -22
-0 -5 -4 -11 -9 -7 -0 -0 -0 -0 -0 -0 -0 -0 -0 -0 -0 -0 -113 -58 -24 -52 -96 -73 -79 -179 -183 -184 -184 -183 -151 -97 -116 -93 -13 -1 -1 -30 -10 -36 -97 -143 -29 -6
-0 -18 -4 -0 -0 -0 -0 -0 -0 -0 -0 -0 -0 -0 -0 -0 -0 -156 -76 -45 -42 -48 -100 -129 -153 -219 -264 -260 -200 -207 -216 -142 -67 -54 -15 -10 -31 -105 -69 -51 -47 -42 -56 -20
-0 -0 -0 -0 -0 -0 -0 -0 -0 -0 -0 -0 -0 -0 -0 -33 -53 -52 -66 -52 -42 -64 -136 -176 -181 -0 -0 -0 -0 -0 -60 -253 -131 -80 -53 -33 -30 -13 -1 -0 -1 -191 -24 -1
-0 -0 -0 -0 -0 -0 -0 -0 -0 -0 -0 -0 -0 -0 -136 -90 -49 -53 -72 -80 -78 -77 -81 -64 -72 -93 -114 -119 -13 -0 -0 -0 -228 -170 -123 -72 -36 -46 -43 -23 -3 -1 -5 -1
-0 -0 -0 -0 -0 -0 -0 -0 -0 -0 -0 -0 -0 -0 -122 -62 -71 -77 -110 -75 -55 -47 -73 -110 -107 -119 -122 -111 -88 -96 -99 -272 -248 -254 -227 -212 -141 -88 -64 -67 -67 -41 -17 -9
-0 -0 -0 -0 -0 -0 -0 -0 -0 -0 -0 -0 -0 -0 -0 -0 -0 -40 -29 -57 -71 -85 -0 -9 -8 -23 -171 -180 -0 -0 -0 -0 -34 -228 -224 -236 -252 -195 -132 -110 -100 -75 -55 -36
-0 -0 -0 -0 -0 -0 -0 -0 -0 -0 -0 -0 -0 -0 -0 -0 -0 -7 -0 -0 -0 -0 -0 -0 -0 -0 -0 -0 -0 -0 -0 -0 -17 -21 -22 -259 -259 -230 -208 -148 -100 -76 -66 -68
-0 -0 -0 -0 -0 -0 -0 -0 -0 -0 -0 -0 -0 -0 -0 -0 -0 -0 -0 -0 -0 -0 -0 -0 -0 -0 -0 -0 -0 -0 -0 -0 -0 -0 -235 -241 -13 -158 -200 -128 -31 -37 -51 -60
-0 -0 -0 -0 -0 -0 -0 -0 -0 -0 -0 -0 -0 -0 -0 -0 -0 -0 -0 -0 -0 -0 -0 -0 -0 -0 -0 -253 -264 -305 -175 -203 -271 -150 -0 -0 -215 -130 -0 -64 -45 -1 -1 -15
-0 -0 -0 -0 -0 -0 -0 -0 -0 -0 -0 -0 -0 -0 -0 -0 -0 -0 -0 -0 -0 -0 -0 -1 -3 -25 -221 -229 -2 -1 -108 -254 -0 -0 -0 -2 -0 -3 -194 -181 -145 -47 -1 -32
-0 -0 -0 -0 -0 -0 -0 -0 -0 -0 -0 -0 -0 -0 -0 -0 -0 -0 -2 -0 -0 -0 -1 -2 -2 -3 -2 -1 -1 -1 -46 -1 -2 -0 -1 -1 -1 -0 -144 -208 -0 -0 -94 -49
-0 -0 -0 -0 -0 -0 -0 -0 -1 -1 -0 -0 -0 -0 -1 -2 -2 -2 -2 -1 -3 -3 -109 -2 -1 -1 -1 -1 -1 -1 -2 -187 -1 -1 -1 -2 -3 -2 -2 -1 -0 -0 -0 -40
-0 -0 -0 -0 -0 -0 -0 -0 -0 -0 -0 -2 -2 -2 -1 -1 -2 -1 -2 -1 -1 -2 -2 -2 -1 -3 -1 -12 -1 -1 -2 -94 -1 -1 -2 -2 -1 -3 -2 -2 -0 -0 -0 -0
Wind_Speed
19 20 11 14 16 18 19 18 19 18 16 13 16 17 17 19 15 13 13 14 16 17 17 19 17 17 14 14 14 13 11 9 15 11 11 10 7 7 6 7 16 29 29 27
23 19 12 16 18 19 19 19 17 18 9 14 18 17 20 8 9 11 11 14 17 17 19 21 19 17 16 13 13 12 11 9 11 9 11 12 9 8 8 14 24 26 26 24
24 13 10 18 10 19 14 19 20 20 16 13 14 9 15 15 16 18 15 14 15 16 17 17 18 17 16 13 11 11 10 10 9 8 8 10 10 14 9 17 24 24 26 25
24 6 14 16 21 19 20 19 21 19 18 17 16 15 17 15 16 18 19 16 13 14 14 13 15 17 16 12 13 10 9 12 9 9 9 11 9 9 9 14 16 12 19 9
14 7 10 17 22 20 21 19 21 20 18 17 16 14 17 15 15 18 18 17 16 12 11 11 15 15 15 18 12 13 10 11 10 10 11 11 10 7 5 6 5 9 6 3
17 7 7 20 11 7 11 18 18 20 19 8 16 18 14 16 19 21 19 18 17 13 10 10 12 13 13 14 14 12 12 11 10 10 9 10 8 6 5 5 7 12 13 8
9 10 3 5 10 7 11 17 14 10 8 15 18 16 18 18 19 21 20 19 17 15 14 11 9 10 13 13 11 15 12 10 9 7 5 7 7 4 4 5 7 16 17 17
6 6 7 7 11 20 14 21 18 16 17 17 17 15 15 18 20 20 19 18 16 15 15 14 12 9 7 9 9 9 8 10 9 9 6 3 2 3 5 6 10 14 18 21
7 12 12 12 7 10 8 8 19 22 11 19 17 15 6 14 19 20 20 17 16 15 15 15 15 12 8 6 6 5 4 5 6 5 3 2 8 5 9 10 12 14 17 21
12 13 10 11 10 11 19 13 3 12 21 23 22 17 9 20 18 19 19 18 16 15 16 15 16 14 12 10 8 7 5 3 3 3 4 7 12 5 5 16 21 16 21 27
9 18 10 13 14 14 10 4 16 24 24 28 28 22 19 20 18 18 18 18 18 17 16 14 14 14 14 14 14 13 11 9 5 4 2 7 16 12 7 7 5 19 17 21
5 21 24 19 17 18 23 27 26 26 27 21 22 24 19 19 19 19 19 18 19 17 15 13 14 14 15 15 17 18 20 21 19 9 5 3 8 10 5 4 16 23 17 18
10 20 19 16 12 10 18 16 20 24 24 23 24 24 19 21 22 21 22 20 19 19 16 12 14 16 17 18 20 23 23 25 27 20 14 11 11 12 10 6 10 3 7 12
15 25 27 29 21 19 17 18 17 18 24 29 24 27 22 25 24 26 25 20 19 18 18 15 16 18 19 20 21 22 23 25 24 16 15 15 14 13 11 10 10 7 1 2
19 27 23 25 27 26 27 23 18 18 23 25 29 30 28 28 27 25 23 20 18 18 18 17 18 20 20 22 22 22 23 23 22 18 16 17 18 19 19 6 11 7 6 2
20 27 26 33 25 24 23 21 22 22 22 24 25 26 20 21 21 22 21 20 18 18 19 19 19 20 20 21 22 22 22 22 22 20 19 19 20 21 22 24 36 15 18 9
25 28 28 35 24 26 26 22 20 22 21 23 23 22 19 20 21 21 22 21 20 20 20 21 22 23 24 25 24 25 25 25 23 22 22 21 21 23 22 23 25 25 18 11
27 27 29 30 24 25 23 23 22 21 21 20 19 19 20 21 21 20 20 21 23 24 24 25 26 28 29 29 30 30 29 28 28 27 26 25 24 24 25 25 25 26 25 24
22 22 24 21 21 21 20 18 21 21 22 17 19 18 20 22 24 23 18 21 24 26 27 30 32 33 33 33 32 33 34 33 32 32 32 31 30 29 30 31 30 29 28 28
16 15 14 16 21 25 19 17 21 20 24 19 20 21 23 25 27 22 22 25 29 31 34 38 39 41 40 39 37 38 38 38 38 38 36 35 34 34 34 35 35 33 32 32
14 15 14 15 20 19 18 20 19 23 24 21 22 24 26 27 27 33 36 35 34 35 37 39 39 40 41 41 40 42 42 42 40 40 40 40 38 37 36 37 37 38 36 36
17 17 16 17 21 21 20 18 22 23 22 24 26 28 29 30 33 33 32 33 39 44 39 36 40 42 42 39 38 40 41 41 41 41 40 40 39 39 40 39 38 38 38 38
18 17 19 17 21 19 20 21 21 23 25 28 29 29 30 32 32 34 37 43 47 43 36 33 34 38 35 33 33 36 38 40 41 43 42 38 36 37 38 39 40 40 38 38
15 17 16 20 17 20 22 22 23 22 25 27 28 31 33 34 35 39 44 46 47 45 40 38 37 35 36 35 33 32 33 36 38 41 40 39 35 33 33 36 38 40 41 40
19 16 18 19 20 22 23 25 25 24 26 31 32 33 34 37 39 42 46 47 46 43 42 37 36 35 38 36 33 33 35 34 36 36 35 36 36 36 34 33 37 39 40 41
16 18 19 23 26 24 25 27 30 30 30 31 33 35 34 35 34 38 40 41 42 40 36 35 34 35 34 34 29 34 31 31 32 33 29 30 33 36 36 35 37 35 41 46
Wind_Direction
240 200 109 311 292 290 281 241 260 258 254 216 238 234 237 243 201 177 141 144 144 141 133 141 137 135 131 144 142 151 161 152 161 130 142 148 147 124 119 125 169 207 215 208
176 175 324 298 262 293 261 251 236 250 168 224 243 241 274 107 160 156 131 139 145 136 136 153 156 148 142 131 148 145 149 129 146 130 151 159 135 125 136 161 194 201 210 199
181 320 353 205 153 254 194 263 278 274 249 202 230 122 23 26 9 11 62 98 119 133 143 150 158 155 146 134 114 118 134 134 130 134 126 144 141 168 130 177 200 200 205 201
196 206 160 170 217 229 256 325 282 262 254 293 294 19 15 41 42 19 26 47 78 115 138 143 157 161 157 126 81 83 98 143 130 128 141 150 139 148 141 165 179 165 185 159
175 103 136 179 232 271 272 334 282 257 241 215 339 209 34 40 38 341 352 2 24 75 117 140 158 161 157 161 114 121 90 126 123 129 145 149 147 133 62 25 94 344 349 344
183 37 123 221 340 40 325 226 229 232 239 129 337 304 25 353 332 319 327 333 346 18 72 110 133 145 152 158 159 151 136 133 122 124 134 147 138 110 70 39 1 326 320 336
149 163 78 120 170 84 143 196 255 341 28 331 334 335 340 344 337 331 326 328 342 357 16 27 71 119 143 150 148 168 161 150 150 140 132 145 147 113 65 28 355 315 311 310
56 35 86 41 154 234 142 258 296 322 325 318 348 332 359 342 326 330 335 333 341 353 0 17 38 67 98 128 132 148 153 166 150 150 144 111 108 19 4 354 341 326 313 305
19 341 3 352 359 171 3 124 307 257 20 235 332 1 69 11 349 343 346 352 358 5 7 13 22 24 46 64 86 89 84 132 159 136 71 344 324 328 335 338 333 326 321 312
332 322 359 359 350 330 279 332 259 345 297 305 319 347 12 349 352 351 346 343 355 3 357 357 359 359 359 18 30 53 47 43 147 147 34 345 318 331 339 323 313 324 315 303
343 298 333 314 304 307 344 70 314 280 295 296 309 342 348 345 346 343 345 346 343 344 347 355 359 2 0 1 2 8 10 9 37 148 153 333 309 323 329 335 10 315 319 315
341 291 277 293 303 296 289 272 282 300 309 335 332 331 347 348 347 341 335 339 341 344 349 353 350 350 352 351 352 348 342 334 329 357 1 348 326 321 313 320 336 319 309 317
318 292 293 311 318 316 302 318 311 313 319 324 326 332 353 346 338 334 329 326 332 335 338 342 341 338 335 336 336 333 331 327 314 319 324 334 340 327 325 310 338 120 353 327
298 282 276 265 292 303 311 316 319 322 318 319 323 323 328 333 334 327 324 324 325 328 329 327 327 326 325 325 330 333 334 330 330 336 323 324 336 339 342 327 307 318 112 32
296 278 290 289 291 299 302 312 319 317 317 315 317 319 324 328 330 330 327 324 323 324 325 326 324 324 322 319 322 327 330 331 337 335 328 319 321 317 320 338 302 292 292 287
301 282 291 278 303 306 310 314 313 313 316 317 320 322 337 340 341 340 337 332 326 325 323 322 322 323 322 320 318 321 324 328 331 329 329 326 320 320 314 304 253 183 293 309
293 289 296 286 308 306 309 312 312 315 317 319 320 330 339 337 336 336 334 332 327 326 325 322 318 314 312 311 312 310 314 317 319 319 320 322 317 314 315 312 311 312 312 310
292 293 292 295 304 304 318 324 324 323 323 324 324 331 335 335 333 333 332 328 324 321 318 316 312 310 307 306 305 305 305 306 306 305 307 309 312 310 308 307 306 303 300 296
301 299 300 305 306 312 320 332 330 330 328 333 330 333 334 333 330 324 323 325 321 318 314 311 308 307 305 304 304 301 299 299 299 298 297 298 300 301 299 296 297 296 296 295
322 317 312 320 313 315 331 342 339 336 322 339 336 332 330 329 323 333 336 326 319 315 310 306 303 300 298 298 298 297 295 294 292 292 293 292 293 293 293 289 287 289 289 290
327 325 316 317 317 327 338 337 341 325 330 341 338 333 329 324 322 317 315 315 315 312 309 306 305 302 298 298 297 294 293 291 290 290 288 287 287 287 288 287 284 282 283 284
320 323 327 328 323 315 340 340 329 334 338 334 330 327 323 321 319 318 319 317 309 297 311 312 306 301 301 301 299 296 294 295 292 289 287 284 284 283 282 282 282 281 279 281
322 327 330 334 335 339 339 337 338 335 331 329 327 326 323 321 320 319 314 305 298 308 315 314 311 309 308 305 302 299 298 296 293 289 287 286 284 282 281 280 279 278 278 279
336 336 335 336 343 338 337 334 333 333 332 332 329 325 322 319 319 314 308 305 305 309 313 312 310 309 306 306 304 300 300 299 297 291 288 285 283 282 282 280 278 275 273 273
334 343 339 334 335 337 338 337 336 332 332 328 326 324 322 319 316 311 309 308 310 312 311 312 309 309 306 305 304 301 300 300 295 293 292 287 281 278 281 280 277 274 272 269
344 341 339 336 338 338 338 337 333 331 330 329 327 326 324 322 319 316 316 316 315 314 313 311 309 308 307 304 304 301 302 300 295 295 295 291 284 279 277 279 279 275 269 265